OpenBCM V1.13 (Linux)

Packet Radio Mailbox

DB0FHN

[JN59NK Nuernberg]

 Login: GUEST





  
LU1HVK > KEP      10.01.20 17:31l 243 Lines 12025 Bytes #999 (0) @ WW
BID : 38532_LU1HVK
Read: DJ6UX GUEST
Subj: TLE 12 10
Path: DB0FHN<OE2XZR<OE5XBL<F1OYP<IZ3LSV<IW0QNL<JH4XSY<N3HYM<IK5FKA<LU9HGS<
      LU1HVK
Sent: 200110/1527Z 38532@LU1HVK.2594.CBA.ARG.SA LinBPQ6.0.19

                         _    _   _ _ _   ___     ___  __
                        | |  | | | / | | | \ \   / / |/ /
                        | |  | | | | | |_| |\ \ / /| ' /
                        | |__| |_| | |  _  | \ V / | . \
                        |_____\___/|_|_| |_|  \_/  |_|\_\

     BBS/NODO - CORDOBA (LEONES-FF87UH) - LU1HVK-4 NODO - LU1HVK-3 APRS

+----------------------------------------------------------------------------+
OSCAR 7
1  7530U 74089B   19284.85824115 -.00000032 +00000-0 +79391-4 0  9990
2  7530 101.7595 251.3970 0012356 123.4805 291.7992 12.53640322054716
OSCAR 11 (UoSAT 2)
1 14781U 84021B   19284.93519793 +.00000060 +00000-0 +13431-4 0  9998
2 14781 097.6054 304.1663 0007230 307.4872 052.5685 14.83111503894841
OSCAR 19 (LUSAT)
1 20442U 90005G   19284.81375849 +.00000007 +00000-0 +18776-4 0  9995
2 20442 098.6579 226.6673 0011927 164.8776 195.2766 14.32934791552808
EYESAT A
1 22825U 93061C   19284.52484314 -.00000007  00000-0  15230-4 0  9996
2 22825  98.9129 275.8327 0008957  30.9110 329.2597 14.30068169358366
ITAMSAT
1 22826U 93061D   19284.91944172 -.00000006 +00000-0 +15731-4 0  9998
2 22826 098.9069 276.2137 0009266 018.7194 341.4327 14.30402331358375
RADIO ROSTO
1 23439U 94085A   19284.81365143 -.00000041 +00000-0 +49748-4 0  9994
2 23439 064.8145 289.9574 0145246 090.7897 270.9671 11.27568188020873
JAS 2
1 24278U 96046B   19284.90234044 -.00000023 +00000-0 +15630-4 0  9993
2 24278 098.5552 062.7707 0349406 301.4272 055.3140 13.53093671143131
TECHSAT 1B
1 25397U 98043D   19284.80974467 -.00000021  00000-0  10041-4 0  9993
2 25397  98.6969 223.5985 0002347  74.1193 286.0244 14.23671971104259
ISS (ZARYA)
1 25544U 98067A   19285.03575395  .00001069  00000-0  26607-4 0  9993
2 25544  51.6434 141.8424 0007461 139.3935  11.9695 15.50190967193388
PCSAT
1 26931U 01043C   19284.85886040 -.00000047 +00000-0 +13860-4 0  9996
2 26931 067.0513 066.4893 0007445 268.6395 091.3853 14.30554858941376
SAUDISAT 1C
1 27607U 02058C   19284.62738261 -.00000001 +00000-0 +20635-4 0  9998
2 27607 064.5556 058.1908 0075292 234.1634 125.2459 14.75577844903860
CUTE-1
1 27844U 03031E   19284.89261769 +.00000057 +00000-0 +45375-4 0  9994
2 27844 098.6855 291.3891 0010808 061.0973 299.1288 14.22198712844624
CUBESAT XI 4
1 27848U 03031J   19284.91762843 +.00000044 +00000-0 +39848-4 0  9994
2 27848 098.6930 291.9373 0010808 071.7000 288.5353 14.21791287844486
MOZHAYETS 4
1 27939U 03042A   19284.92499436 +.00000014 +00000-0 +11095-4 0  9994
2 27939 098.0569 058.6048 0014074 065.9000 294.3661 14.66808420857433
CUBESAT XI 5
1 28895U 05043F   19284.35618043 +.00000115 +00000-0 +31018-4 0  9992
2 28895 097.9759 063.2676 0016525 354.3540 005.7473 14.63698104744028
CUTE-1.7+APD II
1 32785U 08021C   19284.78487501 +.00000205 +00000-0 +27741-4 0  9992
2 32785 097.5561 279.1076 0011693 237.9929 122.0152 14.88355569620738
DELFI C3
1 32789U 08021G   19284.68351139 +.00001513 +00000-0 +10446-3 0  9998
2 32789 097.4530 330.8192 0013740 092.8098 267.4703 15.07163476624186
SEEDS
1 32791U 08021J   19284.67620915 +.00000352 +00000-0 +41055-4 0  9992
2 32791 097.5318 285.0814 0012485 209.2193 150.8329 14.90883995621161
YUBELEINY
1 32953U 08025A   19284.73647150  .00000020  00000-0  75656-4 0  9999
2 32953  82.4998  73.2097 0018841 237.3489 122.5771 12.43091566516600
PRISM (HITOMI)
1 33493U 09002B   19284.85300214 +.00000261 +00000-0 +28389-4 0  9993
2 33493 098.1214 210.1764 0015265 157.8858 202.3024 14.96754373582367
KKS-1 (KISEKI)
1 33499U 09002H   19284.89474541 +.00000100 +00000-0 +22792-4 0  9992
2 33499 098.3414 127.2389 0008742 192.3886 167.7108 14.75468340575783
SWISSCUBE
1 35932U 09051B   19284.68169970 +.00000119 +00000-0 +37979-4 0  9997
2 35932 098.5985 094.1009 0007851 165.2633 194.8794 14.56316734533472
BEESAT
1 35933U 09051C   19284.47167618 +.00000112 +00000-0 +36391-4 0  9992
2 35933 098.6002 095.6905 0005819 176.1582 183.9661 14.56401846533517
ITUPSAT 1
1 35935U 09051E   19284.73317027 +.00000073 +00000-0 +28007-4 0  9995
2 35935 098.6112 096.1892 0008151 176.0620 184.0642 14.55557313533348
XIWANG-1 (HOPE-1)
1 36122U 09072B   19284.73077216 -.00000025 +00000-0 +45322-4 0  9997
2 36122 100.0791 281.7236 0008261 077.4979 282.7061 13.16351492472018
TISAT 1
1 36799U 10035E   19284.89985980 +.00000310 +00000-0 +37347-4 0  9995
2 36799 098.1705 080.9828 0013504 070.7144 289.5533 14.91173519501739
JUGNU
1 37839U 11058B   19284.60678123 +.00000312 +00000-0 +24292-4 0  9991
2 37839 019.9628 357.9142 0018858 153.2679 001.5446 14.12660953413411
SRMSAT
1 37841U 11058D   19284.74758870 +.00000291 +00000-0 +14678-4 0  9990
2 37841 019.9729 056.2123 0011974 021.0204 120.5858 14.10640751412861
M-CUBED/EXP-1 PRIME
1 37855U 11061F   19284.83875770 +.00001308 +00000-0 +72675-4 0  9999
2 37855 101.7156 239.5511 0173009 095.3550 266.7427 15.05632211433633
HORYU 2
1 38340U 12025D   19284.63790647 +.00000154 +00000-0 +30430-4 0  9998
2 38340 098.3183 326.6128 0012713 115.9723 244.2797 14.75757798387702
STRAND 1
1 39090U 13009E   19284.82740501 +.00000013 +00000-0 +19908-4 0  9990
2 39090 098.4771 128.8005 0008340 312.4214 047.6265 14.35099919346884
SOMP
1 39134U 13015E   19284.67764963 +.00001264 +00000-0 +66267-4 0  9996
2 39134 064.8647 007.8473 0036923 284.1228 075.5797 15.20384571357692
BEESAT 3
1 39135U 13015F   19284.73904336  .00000895  00000-0  53583-4 0  9990
2 39135  64.8696  27.5787 0036222 292.6379  67.0918 15.17645587357703
BEESAT 2
1 39136U 13015G   19284.75398070 +.00000803 +00000-0 +50080-4 0  9993
2 39136 064.8703 031.6844 0028008 297.9653 061.8639 15.17063447357238
CUBEBUG 1
1 39153U 13018D   19284.85535494 +.00000194 +00000-0 +32195-4 0  9999
2 39153 097.9812 022.3503 0016983 180.8233 179.2954 14.80605431348774
ZACUBE
1 39417U 13066B   19284.82270736 +.00000218 +00000-0 +33681-4 0  9995
2 39417 097.5627 291.8546 0059373 017.9661 342.3632 14.81159000318086
TRITON 1
1 39427U 13066M   19284.93126653 +.00000169 +00000-0 +34662-4 0  9991
2 39427 097.6906 255.2730 0114268 155.8561 204.8061 14.67888134315056
GOMX 1
1 39430U 13066Q   19284.88608094 +.00000152 +00000-0 +36944-4 0  9990
2 39430 097.7584 233.9191 0149867 251.0163 107.4742 14.59294713313403
HUMSAT D
1 39433U 13066T   19284.88235890 +.00000445 +00000-0 +48697-4 0  9996
2 39433 097.5420 327.6115 0029226 276.5181 083.2711 14.92267884319070
CUBEBUG 2
1 39440U 13066AA  19284.93992896 +.00000223 +00000-0 +37769-4 0  9998
2 39440 097.6097 276.6145 0081637 070.9305 290.0724 14.75896060315773
FUNCUBE 1
1 39444U 13066AE  19284.82692121 +.00000272 +00000-0 +39738-4 0  9990
2 39444 097.5599 293.9125 0058315 011.3784 348.8733 14.81987022316397
UWE-3
1 39446U 13066AG  19284.81430670 +.00000224 +00000-0 +36202-4 0  9990
2 39446 097.5855 283.6319 0071088 045.2809 315.4161 14.78431336315685
SPROUT
1 39770U 14029E   19284.87044542 +.00000687 +00000-0 +81892-4 0  9993
2 39770 097.8888 027.4509 0010089 070.5396 289.6896 14.87453220291951
UNISAT 6
1 40012U 14033C   19284.87512315 +.00000183 +00000-0 +34385-4 0  9993
2 40012 097.7402 146.4301 0059736 086.1983 274.6053 14.74016081285657
DUCHIFAT 1
1 40021U 14033M   19284.79875888  .00000453  00000-0  51934-4 0  9990
2 40021  97.9245 209.7756 0013881  35.5081 324.7058 14.90701075288690
QB50P1
1 40025U 14033R   19284.74996249  .00000244  00000-0  31927-4 0  9992
2 40025  97.9036 204.2352 0013516  45.4514 314.7804 14.88995508288444
CHUBUSAT 1
1 40300U 14070C   19284.78062429  .00000583  00000-0  28257-4 0  9995
2 40300  97.3171 356.0026 0020756  14.6272 133.3345 15.22198899273526
NUDT-PHONESAT
1 40900U 15049B   19284.94994815 +.00001864 +00000-0 +81813-4 0  9999
2 40900 097.4380 293.1762 0013888 135.0196 287.6523 15.23123263225201
ZDPS 2A
1 40901U 15049C   19284.91719913 +.00000644 +00000-0 +35065-4 0  9994
2 40901 097.4630 289.0947 0013851 155.7599 291.8402 15.17865859224710
ZDPS 2B
1 40902U 15049D   19284.94917765 +.00000899 +00000-0 +47805-4 0  9990
2 40902 097.4581 286.5292 0014057 152.8627 263.4678 15.17729480224696
XW-2A
1 40903U 15049E   19284.77020582  .00001842  00000-0  44839-4 0  9997
2 40903  97.3263 328.1277 0015195  88.8288   3.7766 15.42174495227980
KAITUO 1A
1 40904U 15049F   19284.95227259 +.00000350 +00000-0 +21962-4 0  9993
2 40904 097.4715 285.0148 0014853 162.5648 261.3040 15.15455503224450
OBJECT G
1 40905U 15049G   19284.91590825 +.00000559 +00000-0 +33989-4 0  9995
2 40905 097.4766 282.4111 0015954 158.3190 262.2873 15.14361347224316
XW-2C
1 40906U 15049H   19284.92828640 +.00000708 +00000-0 +40486-4 0  9992
2 40906 097.4721 285.1265 0015176 153.8750 265.0392 15.15777924224451
XW-2D
1 40907U 15049J   19284.88910505  .00000389  00000-0  23685-4 0  9997
2 40907  97.4699 284.7679 0014734 151.5002 255.0421 15.15971912224460
LILACSAT 2
1 40908U 15049K   19284.93152722 +.00000526 +00000-0 +32632-4 0  9998
2 40908 097.4837 283.5085 0016197 159.0820 258.8498 15.13864732224249
XW-2F
1 40910U 15049M   19284.82110044  .00000916  00000-0  49022-4 0  9994
2 40910  97.4663 286.8760 0015645 144.1833 341.0894 15.17458660224474
XW-2B
1 40911U 15049N   19284.80964211  .00000770  00000-0  43583-4 0  9990
2 40911  97.4718 285.3588 0014673 152.0817 333.7363 15.15903058224347
KAITUO 1B
1 40912U 15049P   19284.80818376  .00001069  00000-0  53000-4 0  9998
2 40912  97.4515 290.6869 0016045 126.4927 358.6793 15.19790678224794
TIANWANG 1C (TW-1C)
1 40926U 15051B   19284.90817938 +.00013957 +00000-0 +18814-3 0  9992
2 40926 097.1237 331.0074 0005805 311.7539 137.4783 15.57910166228081
TIANWANG 1B (TW-1B)
1 40927U 15051C   19284.79543777  .00012608  00000-0  18138-3 0  9998
2 40927  97.1268 330.0301 0006412 326.1855 124.7326 15.56173771227908
